Terug naar catalogus

STARLINK-33625

ActiefCommunicatieVLEO
NORAD 63327·PAYLOAD·🇺🇸 United States

Gelanceerd Mar 18, 2025 vanaf Cape Canaveral Space Force Station

Loading…

Volgende Passages (komende 24 uur)

TLE

VersSource: CelesTrak SupGP

Epoch: Sep 15, 2026, 03:03 UTC

1 63327C 25057W   26258.12756944 -.00009635  00000+0 -34888-3 0  2587
2 63327  43.0046  33.3987 0001538 267.9260 227.6767 15.27590939    10

Volg STARLINK-33625 in realtime met AllMySat

Download on the App Store